Regional Weather Roundup
Issued by NWS

Home | Current Version | Previous Version | Text Only | Print | Product List | Glossary Off
Versions: 1 2 3 4 5 6 7 8 9 10 11 12 13 14 15 16 17 18 19 20 21 22 23 24 25 26 27 28 29 30 31 32 33 34 35 36 37 38 39 40 41 42 43 44 45 46 47 48 49 50

000
ASUS43 KMPX 311310
RWRMN
WEATHER ROUNDUP FOR MINNESOTA
NATIONAL WEATHER SERVICE TWIN CITIES/CHANHASSEN MN
800 AM CDT THU JUL 31 2014


NOTE: "FAIR" INDICATES FEW OR NO CLOUDS BELOW 12,000 FEET WITH NO
SIGNIFICANT WEATHER AND/OR OBSTRUCTIONS TO VISIBILITY. N/A MEANS
CURRENT SKY AND/OR WEATHER CONDITIONS ARE NOT AVAILABLE.

MNZ060>063-068>070-311400-
   Twin Cities Metro

CITY           SKY/WX    TMP DP  RH WIND       PRES   REMARKS
TWIN CITIES    MOSUNNY   64  59  83 SW3       30.05R
ST PAUL        SUNNY     65  59  81 W6        30.04S
CRYSTAL        MOSUNNY   66  56  70 NW6       30.03S
BLAINE         MOSUNNY   64  61  88 W5        30.04S
LAKEVILLE      SUNNY     63  57  82 W3        30.05S
EDEN PRAIRIE   SUNNY     62  59  90 CALM      30.04S
SOUTH ST PAUL  SUNNY     66  58  74 W3        30.04S
LAKE ELMO      FAIR      63  59  88 W3        30.05R
$$
MNZ001>005-007-008-013>017-022>024-027-028-311400-
   Northwest Minnesota

CITY           SKY/WX    TMP DP  RH WIND       PRES   REMARKS
BEMIDJI        SUNNY     62  56  79 W5        30.03F
HALLOCK        SUNNY     63  59  88 NW3       30.03S
ROSEAU         SUNNY     61  55  82 CALM      30.03R
WARROAD        SUNNY     61  55  82 CALM      30.02S
THIEF RVR FALL SUNNY     61  57  88 W5        30.04R
CROOKSTON      SUNNY     61  57  88 NW3       30.04S
FOSSTON        SUNNY     59  57  94 CALM      30.05S
DETROIT LAKES  MOSUNNY   63  61  94 CALM      30.07S
MOORHEAD       SUNNY     61  61 100 CALM      30.06S
PARK RAPIDS    SUNNY     62  58  86 W3        30.05S
$$
MNZ006-009>011-018-025>026-311400-
   North Central Minnesota

CITY           SKY/WX    TMP DP  RH WIND       PRES   REMARKS
BAUDETTE       SUNNY     61  59  93 NW3       30.02S
FLAG ISLAND    SUNNY     66  57  72 NW6       30.00F
INTL FALLS     SUNNY     57  57 100 CALM      30.00S
WASKISH        SUNNY     64  61  88 CALM      30.01S
BIG FORK       SUNNY     55  55 100 CALM      30.02S
LONGVILLE      SUNNY     61  61 100 CALM      30.03S
GRAND RAPIDS   SUNNY     63  57  82 NW6       30.02S
CRANE LAKE     SUNNY     54  54 100 CALM      30.01S
ORR            SUNNY     55  54  94 CALM      29.98S
COOK           SUNNY     55  55 100 W3        30.01S
$$
MNZ012-019>021-037-311400-
   Northeast Minnesota

CITY           SKY/WX    TMP DP  RH WIND       PRES   REMARKS
DULUTH         SUNNY     63  57  81 N3        30.00R
ELY            FOG       55  54  94 CALM      30.00S VSB<1/4
HIBBING        SUNNY     60  57  89 CALM      30.01S
EVELETH        SUNNY     57  55  94 CALM      30.01S FOG
DULUTH HARBOR  SUNNY     63  59  88 SW7       29.99S
TWO HARBORS    SUNNY     63  55  77 NW5       29.97R
SILVER BAY     SUNNY     55  55 100 CALM      29.97S
GRAND MARAIS     N/A     66  53  63 NW7       29.94S
G MARAIS ARPRT SUNNY     59  50  72 NW3       29.98S
$$
MNZ029>031-032-039>041-046>048-054>057-064-311400-
   West Central Minnesota

CITY           SKY/WX    TMP DP  RH WIND       PRES   REMARKS
FERGUS FALLS   SUNNY     61  57  88 CALM      30.06S
WHEATON        MOSUNNY   63  57  82 CALM      30.08S
MORRIS         SUNNY     63  57  82 CALM      30.05F
ALEXANDRIA     MOSUNNY   62  59  90 CALM      30.07F
ELBOW LAKE     FAIR      58  57  94 CALM      30.06S
WADENA         MOSUNNY   61  59  94 CALM      30.05S
GLENWOOD       SUNNY     63  61  94 CALM      30.06F
APPLETON       SUNNY     63  57  82 CALM      30.06S
BENSON         SUNNY     61  57  88 CALM      30.06F
ORTONVILLE     SUNNY     63  55  77 CALM      30.07R
MADISON        SUNNY     63  57  82 W3        30.07S
WILLMAR        FAIR      63  55  77 W3        30.08S
$$
MNZ033>034-036-042>043-049>051-058-059-311400-
   Central Minnesota

CITY           SKY/WX    TMP DP  RH WIND       PRES   REMARKS
ST CLOUD       MOSUNNY   62  56  80 CALM      30.04F
SAUK CENTRE    FAIR      56  54  95 CALM      30.06S
PAYNESVILLE    SUNNY     56  56 100 CALM      30.06F
AITKIN         SUNNY     66  57  72 CALM      30.01F
PINE RIVER     SUNNY     61  55  82 CALM      30.07S
BRAINERD       MOSUNNY   62  58  86 CALM      30.04S
STAPLES        MOSUNNY   61  57  88 CALM      30.05S
LONG PRAIRIE   FAIR      59  57  94 CALM      30.06S
LITTLE FALLS   MOSUNNY   55  55 100 CALM      30.04F
LITCHFIELD       N/A     66  63  88 CALM      30.06F
BUFFALO        MOSUNNY   62  57  84 CALM      30.06S
MAPLE LAKE     MOSUNNY   63  59  87 CALM      30.06S
$$
MNZ037-044-045-052-053-311400-
   East Central Minnesota

CITY           SKY/WX    TMP DP  RH WIND       PRES   REMARKS
PRINCETON      MOSUNNY   61  57  88 CALM      30.04S
MORA           MOSUNNY   63  54  72 W3        30.04S
CAMBRIDGE      MOSUNNY   64  54  68 W3        30.02R
RUSH CITY      MOSUNNY   63  57  81 CALM      30.03S
MOOSE LAKE     SUNNY     59  55  88 CALM      30.00S
HINCKLEY       FAIR      63  61  94 W3        30.02S
CLOQUET        SUNNY     63  57  82 NW7       30.00S
MCGREGOR       SUNNY     61  57  88 W3        30.03S
$$
MNZ071>073-080-081-089-090-097-098-311400-
   Southwest Minnesota

CITY           SKY/WX    TMP DP  RH WIND       PRES   REMARKS
MONTEVIDEO     SUNNY     64  57  77 CALM      30.08S
GRANITE FALLS  SUNNY     59  56  88 SW3       30.09S
CANBY          SUNNY     64  57  79 CALM      30.08S
MARSHALL       MOSUNNY   66  57  72 CALM      30.07F
REDWOOD FALLS  PTSUNNY   63  55  75 W6        30.07S
OLIVIA         MOSUNNY   59  55  88 CALM      30.07R
PIPESTONE      SUNNY     64  57  77 CALM      30.09F
WINDOM         SUNNY     61  55  82 W3        30.10S
WORTHINGTON    SUNNY     63  57  82 CALM      30.11S
JACKSON        MOSUNNY   63  55  77 W5        30.10S
TRACY          MOSUNNY   65  58  78 SW5       30.09S
SLAYTON        MOSUNNY   64  59  84 CALM      30.11S
$$
MNZ065>067-074>077-082>085-091>093-311400-
   South Central Minnesota

CITY           SKY/WX    TMP DP  RH WIND       PRES   REMARKS
MANKATO        PTSUNNY   61  54  77 W3        30.07S
NEW ULM        MOSUNNY   59  57  94 CALM      30.07S
ST JAMES       SUNNY     64  57  77 SW3       30.09R
FAIRMONT       SUNNY     64  55  72 W6        30.09R
GLENCOE        SUNNY     64  56  75 CALM      30.06S
FARIBAULT      SUNNY     64  55  72 CALM      30.06S
OWATONNA       SUNNY     61  57  88 CALM      30.07S
WASECA         SUNNY     55  52  88 CALM      30.09S
ALBERT LEA     MOSUNNY   64  55  72 CALM      30.08S
$$
MNZ078>079-086>088-094>096-311400-
   Southeast Minnesota

CITY           SKY/WX    TMP DP  RH WIND       PRES   REMARKS
ROCHESTER      SUNNY     61  56  83 W5        30.08R
RED WING       SUNNY     63  61  94 W3        30.03S
STANTON        SUNNY     61  56  85 S3        30.04S
DODGE CENTER   SUNNY     61  57  88 W5        30.07R
WINONA         SUNNY     63  57  82 CALM      30.04R
AUSTIN         SUNNY     63  57  82 W5        30.07S
PRESTON        SUNNY     62  60  94 W8        30.07S
$$
ABBREVIATIONS USED IN REMARKS
   TC - TEMPERATURES IN CELSIUS
  WCI - WIND CHILL INDEX
   HX - HEAT INDEX
  VSB - VISIBILITY
$$


USA.gov is the U.S. government's official web portal to all federal, state and local government web resources and services.